Погода в Червоногригоровке

Украина / Днепропетровская область     47°37′58″N   34°32′03″E
темп.,
°C
ветер,
м/с
пор.,
м/с
влажн.,
%
обл.,
%
осадки,
мм/ч
давл.,
гПа
погр.,
м
2 июля, сб
сб200:00+19ссв49580 0.0 1016154
03:00+17св49690 0.0 1017182
06:00+16св511650 0.0 1018328
09:00+20св67440 0.0 1020843
12:00+23ссв67250 0.0 10201428
15:00+26ссв55220 0.0 10191793
18:00+25с66250 0.0 10191907
21:00+19ссв46470 0.0 102088
3 июля, вс
вс300:00+16св35570 0.0 102168
03:00+15ссв33650 0.0 102140
06:00+15ссв36680 0.0 1020124
09:00+22с44470 0.0 1020980
12:00+26с45335 0.0 10191853
15:00+28с452714 0.0 10182263
18:00+28с55295 0.0 10172350
21:00+22с464560 0.0 101876
4 июля, пн
пн400:00+20св3353100 0.0 101830
03:00+19св335659 0.0 101834
06:00+19ссв22600 0.0 101829
09:00+26с23405 0.0 1018740
12:00+29с23320 0.0 10172111
15:00+31с222711 0.0 10163013
18:00+32с232614 0.0 10152896
21:00+26в224121 0.0 101530
5 июля, вт
вт500:00+22св33543 0.0 101628
03:00+21св33570 0.0 101633
06:00+22всв22610 0.0 101732
09:00+28св33430 0.0 1017636
12:00+32св33313 0.0 10162583
15:00+33в222697 0.0 10153301
18:00+31юз223492 0.0 1015519
21:00+26всв33400 0.0 101535
6 июля, ср
ср600:00+23ююз34580 0.0 101651
03:00+22ю34630 0.0 101644
06:00+21юв23600 0.0 101753
09:00+28ююв44390 0.0 1016647
12:00+32ююв43280 0.0 10161828
15:00+34ююв43230 0.0 10152912
18:00+33ююв43210 0.0 10142565
21:00+27ююв33302 0.0 101426